Location: Cussy
(47.0410°N, 4.6412°E)
Time: 06:03:25
(UTC+00:00)

Cosmos 2154 Rocket - Pass Details

Date: 30 November 2020
Orbit: 966 x 996 km, 82.9° (Epoch: 18 January)

Event Time Altitude Azimuth Distance (km) Brightness Sun altitude
Rises 16:27:48 0° 349° (N) 3,718 6.9 -5.8°
Reaches altitude 10° 16:30:20 10° 349° (NNW) 2,768 6.2 -6.2°
Maximum altitude 16:36:41 78° 265° (W) 1,023 4.3 -7.2°
Drops below altitude 10° 16:43:01 10° 180° (S) 2,756 6.7 -8.2°
Sets 16:45:32 0° 179° (S) 3,701 7.3 -8.6°
